| time (UTC) | temp F | wind direction | speed MPH | gust MPH | rain 1hr in | rain 24hr in | rain mn in | humidity % | barometer mb |
| 20260507120018 | 52 | 112 | 0.0 | 0.0 | 0.00 | 0.00 | 0.00 | 94 | 1017.0 |
| 20260507114524 | 52 | 112 | 0.0 | 0.0 | 0.00 | 0.00 | 0.00 | 94 | 1017.1 |
| 20260507113027 | 53 | 112 | 0.0 | 0.0 | 0.00 | 0.00 | 0.00 | 94 | 1017.0 |
| 20260507111510 | 52 | 112 | 0.0 | 0.0 | 0.00 | 0.00 | 0.00 | 94 | 1017.2 |
| 20260507110014 | 52 | 112 | 0.0 | 0.0 | 0.00 | 0.00 | 0.00 | 94 | 1017.2 |
| 20260507104522 | 52 | 112 | 0.0 | 0.0 | 0.00 | 0.00 | 0.00 | 94 | 1017.3 |
| 20260507103029 | 52 | 112 | 0.0 | 0.0 | 0.00 | 0.00 | 0.00 | 93 | 1017.5 |
| 20260507101533 | 52 | 112 | 0.0 | 0.0 | 0.00 | 0.00 | 0.00 | 93 | 1017.5 |
| 20260507100012 | 53 | 112 | 0.0 | 0.0 | 0.00 | 0.00 | 0.00 | 93 | 1017.5 |
| 20260507094516 | 53 | 112 | 0.0 | 0.0 | 0.00 | 0.00 | 0.00 | 93 | 1017.7 |
| 20260507093020 | 53 | 112 | 0.0 | 0.0 | 0.00 | 0.00 | 0.00 | 93 | 1017.7 |
| 20260507091531 | 53 | 112 | 0.0 | 0.0 | 0.00 | 0.00 | 0.00 | 91 | 1017.7 |
| 20260507090026 | 54 | 112 | 0.0 | 0.0 | 0.00 | 0.00 | 0.00 | 91 | 1017.9 |
| 20260507084513 | 54 | 112 | 0.0 | 0.0 | 0.00 | 0.00 | 0.00 | 92 | 1018.0 |
| 20260507083014 | 55 | 112 | 0.0 | 0.0 | 0.00 | 0.00 | 0.00 | 92 | 1018.1 |
| 20260507081523 | 55 | 112 | 0.0 | 0.0 | 0.00 | 0.00 | 0.00 | 92 | 1018.3 |
| 20260507080014 | 55 | 112 | 0.0 | 0.0 | 0.00 | 0.00 | 0.00 | 91 | 1018.4 |
| 20260507074508 | 55 | 112 | 0.0 | 0.0 | 0.00 | 0.00 | 0.00 | 91 | 1018.5 |
| 20260507073012 | 55 | 112 | 0.0 | 0.0 | 0.00 | 0.00 | 0.00 | 90 | 1018.5 |
| 20260507071517 | 55 | 112 | 0.0 | 0.0 | 0.00 | 0.00 | 0.00 | 90 | 1018.5 |
| 20260507070019 | 56 | 112 | 0.0 | 0.0 | 0.00 | 0.00 | 0.00 | 89 | 1018.6 |
| 20260507064516 | 56 | 112 | 0.0 | 0.0 | 0.00 | 0.00 | 0.00 | 88 | 1018.8 |
| 20260507063009 | 56 | 115 | 0.0 | 0.0 | 0.00 | 0.00 | 0.00 | 88 | 1018.8 |
| 20260507061513 | 56 | 115 | 0.0 | 0.0 | 0.00 | 0.00 | 0.00 | 90 | 1018.8 |
| 20260507060020 | 57 | 115 | 0.0 | 0.0 | 0.00 | 0.00 | 0.00 | 89 | 1018.9 |
| 20260507054514 | 57 | 115 | 0.0 | 0.0 | 0.00 | 0.00 | 0.00 | 89 | 1018.8 |
| 20260507053018 | 57 | 115 | 0.0 | 0.0 | 0.00 | 0.00 | 0.00 | 88 | 1018.8 |
| 20260507051513 | 57 | 121 | 0.0 | 0.0 | 0.00 | 0.00 | 0.00 | 88 | 1018.8 |
| 20260507050025 | 57 | 121 | 0.0 | 0.0 | 0.00 | 0.00 | 0.00 | 86 | 1018.8 |
| 20260507044513 | 58 | 121 | 0.0 | 0.0 | 0.00 | 0.00 | 0.00 | 86 | 1018.8 |
| 20260507043016 | 58 | 121 | 0.0 | 0.0 | 0.00 | 0.00 | 0.00 | 86 | 1018.4 |
| 20260507041516 | 58 | 121 | 0.0 | 0.0 | 0.00 | 0.00 | 0.00 | 85 | 1018.5 |
| 20260507040011 | 59 | 212 | 0.0 | 0.0 | 0.00 | 0.00 | 0.00 | 84 | 1018.4 |
| 20260507034521 | 60 | 229 | 0.0 | 0.0 | 0.00 | 0.00 | 0.00 | 82 | 1018.3 |
| 20260507033019 | 60 | 295 | 0.0 | 3.0 | 0.00 | 0.00 | 0.00 | 79 | 1018.2 |
| 20260507031516 | 61 | 212 | 0.0 | 3.0 | 0.00 | 0.00 | 0.00 | 77 | 1018.1 |
| 20260507030019 | 61 | 242 | 0.0 | 3.0 | 0.00 | 0.00 | 0.00 | 75 | 1018.0 |
| 20260507024512 | 62 | 233 | 0.0 | 5.0 | 0.00 | 0.00 | 0.00 | 73 | 1017.7 |
| 20260507023020 | 63 | 210 | 0.0 | 5.0 | 0.00 | 0.00 | 0.00 | 71 | 1017.7 |
| 20260507021518 | 65 | 237 | 1.0 | 2.0 | 0.00 | 0.00 | 0.00 | 69 | 1017.6 |
| 20260507020023 | 65 | 239 | 2.0 | 6.0 | 0.00 | 0.00 | 0.00 | 69 | 1017.6 |
| 20260507014521 | 65 | 226 | 1.0 | 7.0 | 0.00 | 0.00 | 0.00 | 70 | 1017.5 |
| 20260507013011 | 67 | 233 | 2.0 | 7.0 | 0.00 | 0.00 | 0.00 | 67 | 1017.5 |
| 20260507011529 | 68 | 233 | 2.0 | 4.0 | 0.00 | 0.00 | 0.00 | 63 | 1017.5 |
| 20260507010021 | 68 | 238 | 3.0 | 7.0 | 0.00 | 0.00 | 0.00 | 63 | 1017.5 |
| 20260507004519 | 69 | 228 | 1.0 | 8.0 | 0.00 | 0.00 | 0.00 | 62 | 1017.4 |
| 20260507003022 | 69 | 215 | 3.0 | 7.0 | 0.00 | 0.00 | 0.00 | 60 | 1017.3 |
| 20260507001519 | 69 | 215 | 3.0 | 8.0 | 0.00 | 0.00 | 0.00 | 60 | 1017.1 |
| 20260507000022 | 69 | 219 | 4.0 | 8.0 | 0.00 | 0.00 | 0.00 | 60 | 1017.1 |
| 20260506234520 | 70 | 246 | 3.0 | 8.0 | 0.00 | 0.00 | 0.00 | 59 | 1016.9 |
| 20260506233025 | 69 | 176 | 2.0 | 8.0 | 0.00 | 0.00 | 0.00 | 61 | 1016.8 |
| 20260506231524 | 69 | 203 | 3.0 | 8.0 | 0.00 | 0.00 | 0.00 | 62 | 1017.1 |
| 20260506230023 | 69 | 231 | 5.0 | 8.0 | 0.00 | 0.00 | 0.00 | 61 | 1017.3 |
| 20260506224525 | 69 | 223 | 4.0 | 11.0 | 0.00 | 0.00 | 0.00 | 63 | 1017.2 |
| 20260506223025 | 70 | 229 | 4.0 | 9.0 | 0.00 | 0.00 | 0.00 | 61 | 1017.3 |
| 20260506221526 | 70 | 244 | 4.0 | 10.0 | 0.00 | 0.00 | 0.00 | 61 | 1017.2 |
| 20260506220026 | 70 | 200 | 4.0 | 11.0 | 0.00 | 0.00 | 0.00 | 61 | 1017.4 |
| 20260506214525 | 70 | 207 | 3.0 | 11.0 | 0.00 | 0.00 | 0.00 | 60 | 1017.5 |
| 20260506213020 | 71 | 176 | 3.0 | 8.0 | 0.00 | 0.00 | 0.00 | 60 | 1017.7 |
| 20260506211526 | 69 | 220 | 4.0 | 10.0 | 0.00 | 0.00 | 0.00 | 60 | 1017.7 |
| 20260506210032 | 70 | 190 | 4.0 | 9.0 | 0.00 | 0.00 | 0.00 | 61 | 1017.8 |
| 20260506204526 | 70 | 175 | 3.0 | 13.0 | 0.00 | 0.00 | 0.00 | 60 | 1017.9 |
| 20260506203036 | 70 | 235 | 5.0 | 10.0 | 0.00 | 0.00 | 0.00 | 59 | 1018.0 |
| 20260506201522 | 70 | 220 | 5.0 | 9.0 | 0.00 | 0.00 | 0.00 | 59 | 1018.0 |
| 20260506200026 | 71 | 330 | 4.0 | 10.0 | 0.00 | 0.00 | 0.00 | 58 | 1018.1 |
| 20260506194526 | 71 | 254 | 3.0 | 8.0 | 0.00 | 0.00 | 0.00 | 58 | 1018.2 |
| 20260506193016 | 71 | 191 | 2.0 | 6.0 | 0.00 | 0.00 | 0.00 | 57 | 1018.3 |
| 20260506191519 | 71 | 139 | 2.0 | 6.0 | 0.00 | 0.00 | 0.00 | 58 | 1018.3 |
| 20260506190023 | 70 | 246 | 3.0 | 11.0 | 0.00 | 0.00 | 0.00 | 57 | 1018.5 |
| 20260506184526 | 69 | 341 | 2.0 | 7.0 | 0.00 | 0.00 | 0.00 | 57 | 1018.7 |
| 20260506183026 | 69 | 221 | 3.0 | 7.0 | 0.00 | 0.00 | 0.00 | 58 | 1018.8 |
| 20260506181528 | 67 | 35 | 3.0 | 7.0 | 0.00 | 0.00 | 0.00 | 59 | 1018.9 |
| 20260506180026 | 67 | 359 | 1.0 | 4.0 | 0.00 | 0.00 | 0.00 | 59 | 1019.0 |
| 20260506174526 | 66 | 274 | 1.0 | 3.0 | 0.00 | 0.00 | 0.00 | 62 | 1019.2 |
| 20260506173031 | 64 | 297 | 1.0 | 5.0 | 0.00 | 0.00 | 0.00 | 63 | 1019.5 |
| 20260506171529 | 64 | 351 | 1.0 | 4.0 | 0.00 | 0.00 | 0.00 | 64 | 1019.5 |
| 20260506170019 | 63 | 20 | 1.0 | 4.0 | 0.00 | 0.00 | 0.00 | 66 | 1019.4 |
| 20260506164504 | 62 | 299 | 2.0 | 6.0 | 0.00 | 0.00 | 0.00 | 69 | 1019.4 |
| 20260506163005 | 61 | 32 | 1.0 | 5.0 | 0.00 | 0.00 | 0.00 | 71 | 1019.5 |
| 20260506161528 | 61 | 295 | 1.0 | 5.0 | 0.00 | 0.00 | 0.00 | 74 | 1019.4 |
| 20260506160016 | 59 | 316 | 1.0 | 5.0 | 0.00 | 0.00 | 0.00 | 77 | 1019.4 |
| 20260506154521 | 59 | 228 | 0.0 | 1.0 | 0.00 | 0.00 | 0.00 | 77 | 1019.5 |
| 20260506153024 | 59 | 226 | 0.0 | 0.0 | 0.00 | 0.04 | 0.00 | 76 | 1019.6 |
| 20260506151507 | 58 | 226 | 0.0 | 1.0 | 0.00 | 0.04 | 0.00 | 83 | 1019.6 |
| 20260506150026 | 56 | 120 | 0.0 | 1.0 | 0.00 | 0.04 | 0.00 | 87 | 1019.6 |
| 20260506144518 | 55 | 120 | 0.0 | 0.0 | 0.00 | 0.04 | 0.00 | 92 | 1019.6 |
| 20260506143027 | 51 | 120 | 0.0 | 0.0 | 0.00 | 0.05 | 0.00 | 95 | 1019.5 |
| 20260506141523 | 49 | 120 | 0.0 | 0.0 | 0.00 | 0.06 | 0.00 | 94 | 1019.4 |
| 20260506140009 | 48 | 120 | 0.0 | 0.0 | 0.00 | 0.06 | 0.00 | 94 | 1019.4 |
| 20260506134512 | 48 | 120 | 0.0 | 0.0 | 0.00 | 0.06 | 0.00 | 94 | 1019.3 |
| 20260506133018 | 48 | 120 | 0.0 | 0.0 | 0.00 | 0.07 | 0.00 | 94 | 1019.1 |
| 20260506131530 | 48 | 120 | 0.0 | 0.0 | 0.00 | 0.07 | 0.00 | 94 | 1019.0 |
| 20260506130028 | 48 | 120 | 0.0 | 0.0 | 0.00 | 0.07 | 0.00 | 93 | 1018.8 |
| 20260506124508 | 48 | 120 | 0.0 | 0.0 | 0.00 | 0.08 | 0.00 | 93 | 1018.7 |
| 20260506123013 | 48 | 120 | 0.0 | 0.0 | 0.00 | 0.24 | 0.00 | 93 | 1018.6 |
| 20260506121521 | 48 | 120 | 0.0 | 0.0 | 0.00 | 0.29 | 0.00 | 93 | 1018.6 |